www.pogodaiklimat.ru

Погода и климат >> Архив погоды >> Россия >> Забайкальский край >> Черемхово


ПОГОДА в Черемхово

  • Прогноз погоды в Черемхово
  • Монитор погоды в Черемхово

АРХИВ ПОГОДЫ в Черемхово

Время (UTC), дата Ветер
(напр.,м/с)
 
Видим.   Явления Облачность Т
(С)
Тd
(С)
f
(%)
Тe
(С)
Тes
(С)
Комфортность P
(гПа)
Po
(гПа)
Тmin
(С)
Tmax
(С)
R
(мм)
R24
(мм)
S
(см)
21 11.09 ЮЗ 3 н/о 10/10 600 м
[Cb calv]
+10.9 +7.2 78 +9 +9 1005.4 905.3
00 12.09 З 3 10 км слаб. ливневой дождь 10/10 600 м
[Cb cap]
+10.5 +8.9 90 +8 +8 1006.9 906.5 +8.4 0.3
03 12.09 ЮЗ 4 10 км слаб. ливневой дождь 10/10 600 м
[Cb cap]
+9.6 +8.0 90 +7 +7 1010.3 909.3
06 12.09 З 4 20 км осадки на расстоянии 10 баллов +9.7 +5.1 73 +7 +7 1010.3 909.3
09 12.09 З 4 20 км осадки на расстоянии 8/8 600 м
[Cb cap Ci sp]
+10.4 +7.3 81 +8 +8 1010.0 909.3
12 12.09 ЮЗ 2 н/о осадки на расстоянии {ливн. осадки} 10/10 600 м
[Cb cap]
+7.8 +5.9 88 +6 +6 1012.1 910.2 +11.3 0.7
15 12.09 З 1 н/о 4 балла +3.1 +2.7 97 +1 +1 1015.9 912.0
18 12.09 З 2 н/о ясно +2.1 +1.9 99 -1 -1 1016.1 911.8
00 13.09 З 2 4000 м слаб. ливневой дождь {туман} 10/10 600 м
[Cb cap]
+4.2 +4.1 99 +1 +1 1016.8 913.2 +1.2 0.1
03 13.09 ЮЗ 4
{10}
50 км {ливн. осадки} 9/9 600 м
[Cb cap]
+6.5 +4.5 87 +3 +3 1017.5 914.7
06 13.09 З 5 20 км осадки на расстоянии {ливн. осадки} 9/9 600 м
[Cb cap]
+9.0 +4.4 73 +6 +6 1015.0 913.3
09 13.09 З 4 50 км 3/3 1000 м
[Cu med, cong Ci fib]
+10.6 +3.4 61 +8 +9 1014.5 913.3
12 13.09 штиль 0 н/о 3/3 1000 м
[Cu hum]
+4.5 +2.7 88 +3 +3 1015.6 912.2 +10.6 3
15 13.09 штиль 0 н/о 1/0
[Ac lent]
+0.4 -0.0 97 -1 -1 1018.5 913.3
18 13.09 штиль 0 н/о 10/0
[Ac und]
+1.1 +0.8 98 -0 -0 1016.7 912.0
21 13.09 штиль 0 н/о осадки на расстоянии {ливн. осадки} 10/8 600 м
[Cb cap Cs]
+1.4 +1.3 99 0 0 1015.2 910.7
00 14.09 штиль 0 1000 м дымка {ливн. осадки} 10/10 600 м
[St]
+2.2 +2.0 99 +1 +1 1012.9 909.0 0.0 0.5
03 14.09 З 1 50 км 9/9 1000 м
[Sc]
+7.0 +4.7 85 +6 +7 1011.3 909.3
06 14.09 З 2 50 км 9/9 1000 м
[Cb cap]
+12.2 +3.2 54 +12 +12 1008.0 908.0
09 14.09 С 2
{12}
50 км 8/6 600 м
[Cb cap Cs]
+11.3 +3.1 57 +10 +11 1008.3 908.0
12 14.09 штиль 0
{12}
н/о {ливн. осадки} 6/3 600 м
[Cb cap Ac cuf Cs]
+4.1 +3.2 94 +3 +3 1012.9 909.6 +13.5 0.4
15 14.09 СЗ 4 н/о осадки на расстоянии 10/10 600 м
[Cb cap]
+5.3 -2.5 57 +2 +2 1016.6 913.3
18 14.09 З 4 н/о 6/4 600 м
[Cb cap Ac trans]
+1.1 -1.0 86 -4 -4 1021.2 916.0
21 14.09 З 2 н/о ясно -1.9 -3.2 91 -6 -6 1023.9 917.3
00 15.09 З 1 50 км ясно +0.1 -4.0 74 -2 -0 1023.3 917.4 -3.3
03 15.09 З 6
{10}
50 км 1/1 1000 м
[Cu med, cong]
+4.7 -5.6 47 0 +3 1021.3 917.3
06 15.09 З 6-10
{11}
50 км 6/4 600 м
[Cu med, cong Cs]
+8.4 -3.9 42 +5 +7 1017.3 914.9
09 15.09 З 4
{12}
50 км 10/4 600 м
[Cu med, cong Ac cast Cs]
+9.1 -1.9 46 +7 +7 1016.7 914.7
12 15.09 Ю 1 н/о 3/3 1000 м
[Sc diur, vesp Ci fib]
+2.6 +0.7 87 +1 +1 1018.0 913.7 +9.4
15 15.09 В 1 н/о 1/0
[Ci fib]
+0.4 -0.6 93 -2 -2 1020.1 914.7
18 15.09 С 1 н/о 10/0
[Ac trans Cs]
+0.6 -0.4 93 -1 -1 1018.4 913.3
21 15.09 штиль 0 н/о 6/0
[Ac trans Ci fib]
-1.0 -1.4 97 -2 -2 1019.1 913.3
00 16.09 штиль 0 50 км 8/4 1000 м
[Cu hum Ac lent]
+1.9 +0.9 93 +1 +1 1016.1 911.7 -1.0
03 16.09 ЮЗ 4 50 км 6/1 1000 м
[Cu hum Ac lent Ci fib]
+10.4 +1.7 55 +8 +10 1013.1 912.0
06 16.09 З 7-10
{10}
50 км 9/8 1000 м
[Cb cap Ac lent]
+14.8 +1.2 40 +13 +13 1009.4 910.0
09 16.09 З 5
{14}
н/о н/о +12.2 +3.2 54 +10 +10 1012.4 912.0
12 16.09 ЮЗ 4
{17}
н/о в посл. час ливневой дождь 10/10 600 м
[Cb cap]
+6.7 +3.5 80 +3 +3 1014.9 912.3 +14.9 0.6
15 16.09 СЗ 5
{10}
н/о в посл. час ливневой дождь 10/10 600 м
[Cb cap]
+4.7 +0.3 73 0 0 1019.8 916.0
18 16.09 З 2 н/о 7 баллов +2.8 -0.3 80 -0 -0 1023.6 918.7
21 16.09 З 4 н/о 10 баллов +0.9 -0.6 90 -4 -4 1027.2 921.3
00 17.09 З 3 50 км {ливн. осадки} 9/6 1000 м
[Sc Ac trans]
+1.2 -1.7 81 -3 -3 1028.6 922.6 +0.1 0.3
03 17.09 З 5 50 км 7 баллов +5.1 -3.4 54 +1 +2 1028.6 924.0
06 17.09 З 6 50 км 2 балла +10.3 -5.3 33 +8 +10 1025.2 922.7
12 17.09 штиль 0
{10}
н/о ясно +4.0 -1.1 69 +3 +3 1026.5 921.7 +11.7
15 17.09 СВ 1 н/о ясно -1.4 -2.5 92 -4 -4 1029.8 922.7
18 17.09 С 1 н/о ясно -3.0 -3.4 97 -5 -5 1031.9 924.0
21 17.09 штиль 0 н/о ясно -4.2 -4.6 97 -5 -5 1031.0 922.7
00 18.09 штиль 0 50 км 10/0
[Ac trans Cs]
-1.1 -2.0 94 -2 -1 1028.6 921.7 -4.3
03 18.09 З 1 50 км 10 баллов +8.9 +1.8 61 +9 +9 1022.6 920.0
06 18.09 З 2 50 км 10 баллов +17.6 +3.1 38 +18 +18 1016.4 917.3
09 18.09 З 3 50 км 10 баллов +15.8 +3.2 43 +15 +15 1015.6 916.0
12 18.09 штиль 0 н/о 1/0
[Ci fib]
+9.6 +4.7 71 +9 +9 1018.3 916.4 +17.9
15 18.09 штиль 0 н/о ясно +3.4 +2.7 95 +2 +2 1023.3 918.7

 

Местоположение метеостанции Черемхово (Забайкальский край, Россия): широта 50.58 долгота 110.10 высота над уровнем моря 884 м.

В архиве по умолчанию представлена погода в Черемхово за последнюю неделю. Архивные данные за месяц целиком и за предыдущие месяцы, начиная с января 2011 года, Вы можете получить, выбрав интересующий диапазон дат из раскрывающегося списка и нажав кнопку "Ввод!".


*Определитесь, кто Вы:
робот инопланетянин человек

Внимание! Время в таблицах - всемирное. Для получения местного времени необходимо прибавить поправку, которая равна 9 ч.

Смотрите также архив погоды в соседних городах и на ближайших метеорологических станциях:

Погода в Хилке (Забайкальский край, Россия) (90 км)
Погода в Красном Чикое (Забайкальский край, Россия) (102 км)
Погода в Петровском Заводе (Забайкальский край, Россия) (123 км)
Погода в Букукуне (Забайкальский край, Россия) (145 км)
Погода в Мензе (Забайкальский край, Россия) (158 км)
Погода в Мухоршибири (Бурятия, Россия) (169 км)
Погода в Кыре (Забайкальский край, Россия) (171 км)
Погода в Хоринске (Бурятия, Россия) (179 км)
Погода в Улетах (Забайкальский край, Россия) (182 км)
Погода в Бичуре (Бурятия, Россия) (184 км)

Пояснения к столбцам:

Ветер - указаны скорость ветра в м/с - средняя за 10 мин, порывы в срок и между сроками (в фигурных скобках) и направление, откуда дует ветер: С - северный, СВ - северо-восточный, В - восточный, ЮВ - юго-восточный, Ю - южный, ЮЗ - юго-западный, З - западный, СЗ - северо-западный.
Видимость - горизонтальная дальность видимости в метрах или километрах. При видимости от 1 до 10 км при отсутствии осадков обычно наблюдается дымка, при ухудшении видимости до 1 км и менее - туман. В сухую погоду видимость может ухудшаться дымом, пылью или мглою.
Явления - указаны атмосферные явления, наблюдавшиеся в срок или в последний час перед сроком; фигурными скобками обозначены явления, наблюдавшиеся между сроками (за 1-3 часа до срока); квадратными скобками обозначены град или гололедные отложения с указанием их диаметра в мм.
Облачность - указаны через наклонную черту общая и нижняя облачность в баллах и высота нижней границы облаков в метрах; квадратными скобками обозначены формы облаков: Ci - перистые, Cs - перисто-слоистые, Cc - перисто-кучевые, Ac - высококучевые, As - высокослоистые, Sc - слоисто-кучевые, Ns - слоисто-дождевые, Cu - кучевые, Cb - кучево-дождевые. Подробнее классификацию облаков см. в Атласе облаков (PDF).
T - Температура воздуха - температура, измеренная на высоте 2 м над землей.
Td - Температура точки росы - температура, при понижении до которой содержащийся в воздухе водяной пар достигнет насыщения.
f - Относительная влажность воздуха - влажноcть воздуха, измеренная на высоте 2 м над землей.
Te - Эффективная температура - температура, которую ощущает одетый по сезону человек в тени. Характеристика душности погоды. При расчете учитывается влияние влажности воздуха и скорости ветра на теплоощущения человека.
Tes - Эффективная температура на солнце - температура, которую ощущает человек, с поправкой на солнечный нагрев. Характеристика знойности погоды. Зависит от высоты солнца над горизонтом, облачности и скорости ветра. Ночью, в пасмурную погоду, а также при ветре 12 м/с и более поправка равна нулю.
P - Атмосферное давление - приведенное к уровню моря атмосферное давление.
Po - Атмосферное давление - измеренное на уровне метеостанции атмосферное давление.
Tmin - Минимальная температура - минимум температуры воздуха на высоте 2 м над землей.
Tmax - Максимальная температура - максимум температуры воздуха на высоте 2 м над землей.
R - Количество осадков - Количество выпавших осадков за период времени, мм. При наведении курсора мыши на число - период времени, за который выпало указанное количество осадков.
R24 - Количество осадков - Количество выпавших осадков за 24 часа, мм.
S - Снежный покров - Высота снежного покрова, см. При наведении курсора мыши на число - состояние снежного покрова и степень покрытия местности в баллах.